Location: Ikejouine
(32.5142°N, 5.4699°W)
Time: 13:13:51
(UTC+00:00)

OAO 1 - Pass Details

Date: 09 April 2020
Orbit: 773 x 784 km, 35.0° (Epoch: 04 June)

Event Time Altitude Azimuth Distance (km) Brightness Sun altitude
Rises 20:00:21 0° 254° (WSW) 3,256 8.7 -15.6°
Reaches altitude 10° 20:02:50 10° 254° (WSW) 2,329 7.8 -16.1°
Maximum altitude 20:08:21 89° 163° (SSE) 784 4.5 -17.2°
Enters shadow 20:11:45 24° 76° (ENE) 1,564 5.7 -17.8°
